Weather History for Watford City, ND

Change the Weather History Date:

Friday, May 3, 2013

  Actual Average (KISN) Record (KISN)
Temperature  
Mean Temperature 48 °F 50 °F  
Max Temperature 62 °F 64 °F 90 °F (1952)
Min Temperature 33 °F 36 °F 10 °F (2005)
Degree Days  
Heating Degree Days 18 15  
Month to date heating degree days 46  
Since 1 July heating degree days 8571  
Cooling Degree Days 0 0  
Month to date cooling degree days 0  
Year to date cooling degree days 1  
Moisture  
Dew Point 20 °F    
Average Humidity 35    
Maximum Humidity 52    
Minimum Humidity 19    
Precipitation  
Precipitation 0.00 in 0.05 in 0.85 in (1919)
Month to date precipitation 0.15  
Year to date precipitation 2.84  
Sea Level Pressure  
Sea Level Pressure 30.25 in    
Wind  
Wind Speed 12 mph (SE)    
Max Wind Speed 17 mph    
Max Gust Speed 24 mph    
Visibility 10 miles    
Events      
T = Trace of Precipitation, MM = Missing Value Source: NWS Daily Summary

Daily Weather History Graph

Daily Weather History Graph

Search for Another Location

Airport:

Trip Planner

Search our weather history database for the weather conditions in past years. The results will help you decide how hot, cold, wet, or windy it might be!

Date:

Astronomy

May. 03, 2013 Rise Set
Actual Time 6:31 AM CDT 9:08 PM CDT
Civil Twilight 5:56 AM CDT 9:43 PM CDT
Nautical Twilight 5:12 AM CDT 10:28 PM CDT
Astronomical Twilight 4:21 AM CDT 11:20 PM CDT
Moon 3:25 AM CDT (5/3) 2:39 PM CDT (5/3)
Length of Visible Light 15h 47m
Length of Day
14h 37m
Last Quarter, 37% of the Moon is Illuminated
May 3
Last Quarter
May 9
New
May 17
First Quarter
May 24
Full
May 31
Last Quarter

Hourly Weather History & Observations

Time (CDT) Temp. Windchill Dew Point Humidity Pressure Visibility Wind Dir Wind Speed Gust Speed Precip Events Conditions
12:15 AM 37.4 °F 28.9 °F 19.4 °F 48% 30.38 in 10.0 mi SE 13.8 mph - N/A   Clear
12:35 AM 39.2 °F 31.2 °F 19.4 °F 45% 30.38 in 10.0 mi SE 13.8 mph - N/A   Clear
12:55 AM 37.4 °F 28.9 °F 19.4 °F 48% 30.38 in 10.0 mi SE 13.8 mph - N/A   Clear
1:15 AM 37.4 °F 28.9 °F 19.4 °F 48% 30.37 in 10.0 mi SE 13.8 mph - N/A   Clear
1:35 AM 37.4 °F 28.9 °F 19.4 °F 48% 30.36 in 10.0 mi SE 13.8 mph - N/A   Clear
1:55 AM 37.4 °F 29.3 °F 19.4 °F 48% 30.36 in 10.0 mi SE 12.7 mph - N/A   Clear
2:15 AM 37.4 °F 28.9 °F 19.4 °F 48% 30.35 in 10.0 mi SSE 13.8 mph 19.6 mph N/A   Clear
2:35 AM 37.4 °F 28.9 °F 19.4 °F 48% 30.35 in 10.0 mi SSE 13.8 mph - N/A   Clear
2:55 AM 37.4 °F 28.5 °F 19.4 °F 48% 30.34 in 10.0 mi SSE 15.0 mph - N/A   Clear
3:15 AM 37.4 °F 28.5 °F 19.4 °F 48% 30.34 in 10.0 mi SSE 15.0 mph - N/A   Clear
3:35 AM 35.6 °F 27.5 °F 19.4 °F 52% 30.33 in 10.0 mi SSE 11.5 mph 17.3 mph N/A   Clear
3:55 AM 35.6 °F 27.5 °F 17.6 °F 48% 30.33 in 10.0 mi SSE 11.5 mph - N/A   Clear
4:15 AM 35.6 °F 27.1 °F 17.6 °F 48% 30.32 in 10.0 mi SSE 12.7 mph 19.6 mph N/A   Clear
4:35 AM 35.6 °F 26.6 °F 17.6 °F 48% 30.32 in 10.0 mi SSE 13.8 mph 18.4 mph N/A   Clear
4:55 AM 35.6 °F 26.6 °F 17.6 °F 48% 30.32 in 10.0 mi SSE 13.8 mph 19.6 mph N/A   Clear
5:15 AM 35.6 °F 27.1 °F 17.6 °F 48% 30.31 in 10.0 mi SSE 12.7 mph 20.7 mph N/A   Clear
5:35 AM 35.6 °F 26.6 °F 17.6 °F 48% 30.31 in 10.0 mi SSE 13.8 mph 20.7 mph N/A   Clear
5:55 AM 35.6 °F 27.1 °F 17.6 °F 48% 30.31 in 10.0 mi SSE 12.7 mph 20.7 mph N/A   Clear
6:15 AM 35.6 °F 27.5 °F 17.6 °F 48% 30.30 in 10.0 mi SSE 11.5 mph - N/A   Clear
6:35 AM 35.6 °F 29.2 °F 17.6 °F 48% 30.30 in 10.0 mi SSE 8.1 mph - N/A   Clear
6:55 AM 33.8 °F 28.6 °F 17.6 °F 52% 30.30 in 10.0 mi SSE 5.8 mph - N/A   Clear
7:15 AM 35.6 °F 31.7 °F 17.6 °F 48% 30.30 in 10.0 mi SSE 4.6 mph - N/A   Clear
7:35 AM 35.6 °F 28.6 °F 17.6 °F 48% 30.30 in 10.0 mi SSE 9.2 mph - N/A   Clear
7:55 AM 37.4 °F 31.4 °F 17.6 °F 45% 30.30 in 10.0 mi SSE 8.1 mph - N/A   Clear
8:15 AM 37.4 °F 29.3 °F 19.4 °F 48% 30.29 in 10.0 mi SSE 12.7 mph 17.3 mph N/A   Clear
8:35 AM 39.2 °F 32.5 °F 19.4 °F 45% 30.30 in 10.0 mi South 10.4 mph - N/A   Clear
8:55 AM 39.2 °F 33.0 °F 19.4 °F 45% 30.29 in 10.0 mi South 9.2 mph - N/A   Clear
9:15 AM 41.0 °F 35.2 °F 19.4 °F 42% 30.28 in 10.0 mi South 9.2 mph - N/A   Clear
9:35 AM 42.8 °F 37.5 °F 19.4 °F 39% 30.28 in 10.0 mi SSE 9.2 mph - N/A   Clear
9:55 AM 44.6 °F 39.7 °F 19.4 °F 37% 30.28 in 10.0 mi SSE 9.2 mph - N/A   Clear
10:15 AM 46.4 °F 42.4 °F 21.2 °F 37% 30.27 in 10.0 mi South 8.1 mph - N/A   Clear
10:35 AM 46.4 °F 41.9 °F 21.2 °F 37% 30.27 in 10.0 mi SE 9.2 mph - N/A   Clear
10:55 AM 48.2 °F - 23.0 °F 37% 30.26 in 10.0 mi SE 11.5 mph 16.1 mph N/A   Clear
11:15 AM 50.0 °F - 23.0 °F 35% 30.25 in 10.0 mi SE 12.7 mph 18.4 mph N/A   Clear
11:35 AM 51.8 °F - 23.0 °F 33% 30.24 in 10.0 mi ESE 15.0 mph 19.6 mph N/A   Clear
11:55 AM 53.6 °F - 21.2 °F 28% 30.23 in 10.0 mi SE 13.8 mph - N/A   Clear
12:15 PM 55.4 °F - 19.4 °F 25% 30.23 in 10.0 mi SE 17.3 mph 24.2 mph N/A   Clear
12:35 PM 57.2 °F - 19.4 °F 23% 30.22 in 10.0 mi SE 16.1 mph 20.7 mph N/A   Clear
12:55 PM 57.2 °F - 19.4 °F 23% 30.21 in 10.0 mi SE 13.8 mph 21.9 mph N/A   Clear
1:15 PM 57.2 °F - 19.4 °F 23% 30.21 in 10.0 mi SSE 15.0 mph 18.4 mph N/A   Clear
1:35 PM 59.0 °F - 19.4 °F 22% 30.20 in 10.0 mi ESE 12.7 mph 21.9 mph N/A   Clear
1:55 PM 59.0 °F - 19.4 °F 22% 30.20 in 10.0 mi SE 12.7 mph 20.7 mph N/A   Clear
2:15 PM 59.0 °F - 19.4 °F 22% 30.20 in 10.0 mi ESE 9.2 mph 17.3 mph N/A   Clear
2:35 PM 60.8 °F - 19.4 °F 20% 30.19 in 10.0 mi SE 11.5 mph 20.7 mph N/A   Clear
2:55 PM 60.8 °F - 19.4 °F 20% 30.19 in 10.0 mi SSE 11.5 mph 20.7 mph N/A   Clear
3:15 PM 60.8 °F - 19.4 °F 20% 30.18 in 10.0 mi SE 12.7 mph 19.6 mph N/A   Clear
3:35 PM 62.6 °F - 19.4 °F 19% 30.18 in 10.0 mi South 10.4 mph 19.6 mph N/A   Clear
3:55 PM 62.6 °F - 19.4 °F 19% 30.17 in 10.0 mi SE 16.1 mph 19.6 mph N/A   Clear
4:15 PM 62.6 °F - 19.4 °F 19% 30.17 in 10.0 mi SE 11.5 mph 20.7 mph N/A   Clear
4:35 PM 62.6 °F - 19.4 °F 19% 30.16 in 10.0 mi ESE 13.8 mph 17.3 mph N/A   Clear
4:55 PM 62.6 °F - 19.4 °F 19% 30.16 in 10.0 mi East 10.4 mph 19.6 mph N/A   Clear
5:15 PM 62.6 °F - 19.4 °F 19% 30.15 in 10.0 mi East 11.5 mph 18.4 mph N/A   Clear
5:35 PM 62.6 °F - 19.4 °F 19% 30.15 in 10.0 mi SE 8.1 mph 18.4 mph N/A   Clear
5:55 PM 62.6 °F - 19.4 °F 19% 30.15 in 10.0 mi SE 12.7 mph 17.3 mph N/A   Clear
6:15 PM 62.6 °F - 19.4 °F 19% 30.15 in 10.0 mi ESE 12.7 mph 17.3 mph N/A   Clear
6:35 PM 60.8 °F - 19.4 °F 20% 30.16 in 10.0 mi ESE 10.4 mph 16.1 mph N/A   Clear
6:55 PM 60.8 °F - 21.2 °F 22% 30.16 in 10.0 mi ESE 10.4 mph 17.3 mph N/A   Clear
7:15 PM 60.8 °F - 19.4 °F 20% 30.16 in 10.0 mi ESE 9.2 mph - N/A   Clear
7:35 PM 59.0 °F - 23.0 °F 25% 30.16 in 10.0 mi ESE 15.0 mph 19.6 mph N/A   Clear
7:55 PM 57.2 °F - 23.0 °F 27% 30.17 in 10.0 mi East 17.3 mph - N/A   Clear
8:15 PM 55.4 °F - 23.0 °F 29% 30.17 in 10.0 mi East 17.3 mph - N/A   Clear
8:35 PM 53.6 °F - 23.0 °F 30% 30.18 in 10.0 mi ESE 16.1 mph - N/A   Clear
8:55 PM 51.8 °F - 21.2 °F 30% 30.18 in 10.0 mi ESE 12.7 mph - N/A   Clear
9:15 PM 50.0 °F - 21.2 °F 32% 30.19 in 10.0 mi ESE 12.7 mph - N/A   Clear
9:35 PM 48.2 °F - 19.4 °F 32% 30.19 in 10.0 mi ESE 11.5 mph - N/A   Clear
9:55 PM 46.4 °F 40.7 °F 19.4 °F 34% 30.20 in 10.0 mi ESE 12.7 mph - N/A   Clear
10:15 PM 46.4 °F 41.9 °F 19.4 °F 34% 30.21 in 10.0 mi ESE 9.2 mph - N/A   Clear
10:35 PM 44.6 °F 39.7 °F 21.2 °F 39% 30.21 in 10.0 mi ESE 9.2 mph - N/A   Clear
10:55 PM 42.8 °F 37.5 °F 21.2 °F 42% 30.22 in 10.0 mi ESE 9.2 mph - N/A   Clear
11:15 PM 42.8 °F 38.0 °F 21.2 °F 42% 30.22 in 10.0 mi ESE 8.1 mph - N/A   Clear
11:35 PM 41.0 °F 35.8 °F 19.4 °F 42% 30.22 in 10.0 mi ESE 8.1 mph - N/A   Clear
11:55 PM 41.0 °F 36.4 °F 21.2 °F 45% 30.23 in 10.0 mi ESE 6.9 mph - N/A   Clear